Total_Precipitation_Accumulation
3.12 3.33 3.27 3.06 3.12 3.23 3.51 3.84 3.92 3.62 3.42 3.23 2.89 2.73 2.84 2.92 3.09 2.91 2.98 2.88 2.39 2.12 2.08 2.17 2.18 2.14 2.23 2.36 2.56 2.83 3.00 3.08 3.24 3.53 3.92 4.29 4.61 4.96
3.35 3.42 3.26 2.99 3.18 3.20 3.34 3.72 4.08 4.16 3.76 3.16 2.92 2.82 2.94 2.74 2.82 2.57 2.64 2.56 2.20 1.98 1.86 1.88 1.88 1.82 1.85 1.90 2.01 2.23 2.40 2.54 2.69 2.80 2.99 3.28 3.59 3.85
3.23 3.15 3.06 3.12 3.32 3.24 3.39 3.56 3.84 4.13 3.78 3.27 3.12 3.12 3.23 3.13 2.96 2.61 2.35 2.25 2.06 2.09 1.91 1.76 1.74 1.75 1.79 1.90 1.94 1.99 2.12 2.28 2.44 2.58 2.71 2.90 3.05 3.22
3.21 3.20 3.03 3.18 3.28 3.25 3.33 3.31 3.43 3.81 3.68 3.38 3.28 3.35 3.28 3.14 3.06 2.85 2.45 2.21 2.25 2.34 2.08 1.92 1.86 1.89 1.78 1.81 1.84 1.85 1.93 2.06 2.20 2.30 2.34 2.37 2.52 2.78
3.20 3.13 2.99 3.13 3.00 3.07 3.11 3.10 3.10 3.25 3.48 3.34 3.16 3.28 3.20 3.07 3.07 2.93 2.80 2.90 2.61 2.42 2.26 2.06 1.99 2.02 1.94 1.83 1.80 1.80 1.87 1.89 1.88 2.01 2.15 2.25 2.29 2.36
2.79 2.73 2.75 2.91 3.01 3.05 2.95 2.92 3.01 3.17 3.30 3.31 3.21 3.29 3.31 3.34 3.30 3.19 3.20 3.12 2.89 2.38 2.28 2.05 1.96 1.94 1.88 1.78 1.74 1.81 1.87 1.91 1.91 1.88 1.95 2.05 2.14 2.23
2.50 2.33 2.36 2.71 2.88 2.88 2.65 2.79 2.92 2.98 3.05 3.19 3.21 3.28 3.38 3.64 3.44 3.20 3.14 3.25 3.06 2.78 2.56 2.23 2.11 2.06 2.01 1.97 1.83 1.74 1.70 1.77 1.86 1.98 2.11 2.22 2.29 2.34
2.24 2.20 2.18 2.25 2.29 2.35 2.39 2.43 2.53 2.61 2.85 3.19 3.26 3.22 3.20 3.33 3.49 3.46 3.41 3.35 3.22 3.07 3.11 2.92 2.57 2.53 2.41 2.24 2.10 1.76 1.50 1.52 1.67 1.80 2.06 2.34 2.59 2.66
2.21 2.29 1.96 1.77 1.99 2.02 2.21 2.22 2.14 2.24 2.41 2.71 2.90 2.91 3.05 3.11 3.48 3.51 3.57 3.58 3.51 3.47 3.52 3.47 3.12 2.82 2.52 2.40 2.33 1.91 1.65 1.52 1.55 1.65 1.79 2.01 2.32 2.66
2.10 2.14 2.08 1.97 1.97 2.13 2.27 2.22 2.03 1.98 1.99 1.96 2.17 2.48 2.80 3.15 3.29 3.39 3.57 3.66 3.65 3.51 3.44 3.42 3.18 3.01 2.65 2.38 2.28 2.03 1.74 1.56 1.50 1.55 1.57 1.64 1.80 2.06
2.03 1.99 1.94 1.88 2.03 1.98 1.93 1.92 1.93 1.92 1.81 1.82 1.87 2.10 2.36 2.50 2.75 3.05 3.31 3.33 3.22 3.04 2.96 3.06 3.01 3.04 2.97 2.69 2.33 2.23 1.88 1.64 1.54 1.54 1.51 1.52 1.63 1.77
2.04 1.99 1.88 1.74 1.80 1.76 1.67 1.79 1.79 1.81 1.94 1.91 1.78 1.75 1.82 2.02 2.19 2.27 2.65 2.91 2.78 2.69 2.46 2.50 2.48 2.76 2.94 2.61 2.32 2.26 2.12 1.93 1.73 1.66 1.62 1.58 1.64 1.55
2.07 1.98 1.94 1.86 1.67 1.64 1.61 1.60 1.68 1.78 1.90 1.97 1.92 1.81 1.89 2.03 1.99 1.99 2.23 2.56 2.66 2.43 2.25 2.50 2.44 2.49 2.58 2.43 2.24 2.13 2.12 2.17 2.08 1.92 1.82 1.75 1.73 1.67
2.23 2.18 2.11 1.94 1.70 1.65 1.56 1.52 1.56 1.48 1.47 1.67 1.74 1.67 1.71 1.80 1.88 1.90 2.02 2.16 2.34 2.32 2.38 2.55 2.57 2.56 2.54 2.42 2.30 2.14 2.01 2.01 2.12 2.30 2.36 2.35 2.12 2.03
2.25 2.37 2.15 1.91 1.73 1.54 1.55 1.60 1.50 1.36 1.41 1.48 1.49 1.51 1.52 1.64 1.89 2.10 2.22 2.33 2.35 2.14 2.01 2.14 2.30 2.52 2.62 2.40 2.16 2.13 2.19 2.09 2.07 2.24 2.34 2.38 2.40 2.40
2.11 2.21 2.09 1.91 1.75 1.61 1.58 1.58 1.47 1.49 1.61 1.58 1.58 1.65 1.71 1.80 1.93 2.03 2.20 2.39 2.42 2.13 2.02 2.06 2.21 2.48 2.54 2.33 2.21 2.11 2.22 2.35 2.20 2.32 2.51 2.51 2.47 2.49
2.26 2.21 2.15 2.01 1.88 1.76 1.74 1.76 1.80 1.80 1.76 1.77 1.82 1.83 1.85 1.89 1.97 2.08 2.21 2.32 2.29 2.05 1.91 2.04 2.20 2.48 2.54 2.52 2.42 2.16 2.16 2.22 2.21 2.34 2.61 2.62 2.53 2.50
2.26 2.13 2.22 2.16 2.02 1.93 1.91 1.91 1.93 1.88 1.88 1.95 1.95 1.94 1.94 1.96 2.01 2.07 2.13 2.12 2.13 2.10 2.03 2.04 2.28 2.55 2.64 2.45 2.16 2.06 2.00 1.95 2.11 2.37 2.47 2.48 2.30 2.20
1.89 1.91 2.05 2.07 1.98 1.94 1.92 1.89 1.82 1.90 2.00 1.97 1.94 2.00 2.02 2.01 2.08 2.14 2.18 2.23 2.19 2.14 2.15 2.24 2.34 2.44 2.41 2.14 1.89 1.77 1.89 1.95 2.11 2.28 2.31 2.25 2.10 2.06
1.66 1.74 1.81 1.89 1.91 1.93 1.95 1.97 1.91 1.93 1.97 1.97 1.96 2.01 2.07 2.07 2.11 2.12 2.09 2.15 2.25 2.27 2.29 2.23 2.21 2.22 2.19 2.19 2.10 1.91 1.83 2.04 2.17 2.15 2.09 2.09 2.06 2.03
1.55 1.61 1.65 1.68 1.74 1.80 1.81 1.89 1.91 1.90 1.91 1.95 1.92 1.94 2.01 2.04 2.08 2.09 2.07 2.15 2.20 2.22 2.22 2.10 2.10 2.36 2.50 2.56 2.34 2.04 2.01 2.11 2.21 2.17 2.19 2.26 2.17 2.06
1.58 1.60 1.59 1.61 1.67 1.75 1.82 1.88 1.90 1.93 1.99 2.01 1.98 1.99 2.02 2.07 2.08 2.12 2.17 2.19 2.18 2.17 2.18 2.22 2.35 2.53 2.64 2.58 2.36 2.25 2.33 2.35 2.37 2.33 2.18 2.14 1.99 1.82
1.56 1.55 1.53 1.53 1.57 1.67 1.76 1.83 1.90 1.98 1.99 2.01 2.08 2.07 2.02 2.00 2.00 2.07 2.11 2.16 2.21 2.29 2.41 2.44 2.42 2.41 2.41 2.44 2.42 2.35 2.28 2.37 2.45 2.38 2.15 2.02 1.82 1.59